Terminal Aerodrome Forecast
Issued by NWS Spokane, WA

Home | Current Version | Previous Version | Text Only | Print | Product List | Glossary On
Versions: 1 2 3 4 5 6 7 8 9 10 11 12
000
FTUS46 KOTX 262321
TAFEAT
TAF
KEAT 262321Z 2700/2724 30018G26KT P6SM SCT250
     FM270700 31013KT P6SM FEW250
     FM271800 30008KT P6SM FEW250=

USA.gov is the U.S. government's official web portal to all federal, state and local government web resources and services.